Content
SEND FEEDBACK

Daily
Averages
Monthly
Summary
United States of America

CHESTERFIELD, MISSOURI


Home > North America > United States > Missouri
Elevation: 170 meters     Latitude: 38 41N     Longitude: 090 31W

WEATHER
 
SELECT A DAY
Number of Records: 203,268;   Date Range: 1/1/95 - 7/7/14
 
SHARE

PRINT THIS DATA

[ ← Previous Day ]
WEATHER ALMANAC - 6 MARCH, 2013
[ Next Day → ]
[ °F ]   °C
Weather ElementAverageHighLow
Temperature0.8 °C4 °C (3:09 pm)-2.2 °C (11:51 pm)
Dewpoint-5.7 °C-5 °C (9:51 am)-6.7 °C (12:51 am)
Humidity62.3 %75 % (11:51 pm)50 % (3:51 pm)
Barometer1027.4 hPa1029.5 hPa (10:51 am)1022 hPa (12:51 am)
Wind Speed20.1 km/h35.2 km/h (12:51 am)
Wind Gust55.5 km/h (12:51 am)
Weather ElementAverage
Visibility15.8 km
Wind DirectionWNW (297.8 °)

Weather ElementTotal
Precipitation---
Heating Degree Days17.4 (Base 18.3)
Averaged from 32 records on 6 March, 2013
WEATHER CONDITIONS BREAKOUT
WIND DIRECTION BREAKOUT
WEATHER BY HOUR - 6 MARCH, 2013
[ °F ]   °C
Local TimeTemperatureDewpointHumidityBarometerVisibilityWind DirectionWind SpeedGust SpeedPrecipitationEventsConditions
12:51 AM0.6 °C-6.7 °C59 %1022 hPa14.5 kmNW (320°)35.2 km/h55.5 km/h0 mmSnowLight Snow
1:51 AM0 °C-6.1 °C64 %1023 hPa14.5 kmNW (320°)24.1 km/h42.6 km/h0 mmSnowLight Snow
2:51 AM0 °C-6.1 °C64 %1023 hPa14.5 kmNW (310°)24.1 km/h40.7 km/h0 mmSnowLight Snow
3:26 AM0 °C-6 °C64 %1022.4 hPa16.1 kmNW (320°)25.9 km/h38.9 km/h0 mmOvercast
3:51 AM0 °C-6.1 °C64 %1023.7 hPa16.1 kmNW (320°)29.6 km/h48.1 km/h0 mmOvercast
4:51 AM0 °C-6.1 °C64 %1025.1 hPa14.5 kmNW (320°)27.8 km/h38.9 km/h0 mmSnowLight Snow
5:51 AM-0.6 °C-5.6 °C69 %1026.1 hPa14.5 kmNW (320°)25.9 km/h44.4 km/h0 mmSnowLight Snow
6:51 AM-0.6 °C-5.6 °C69 %1026.8 hPa14.5 kmNW (320°)25.9 km/h40.7 km/h0 mmSnowLight Snow
7:16 AM-1 °C-6 °C69 %1026.1 hPa16.1 kmNW (320°)27.8 km/h0 mmOvercast
7:51 AM-0.6 °C-6.1 °C67 %1027.8 hPa16.1 kmNW (320°)22.2 km/h38.9 km/h0 mmMostly Cloudy
8:00 AM0 °C-6 °C64 %1027.1 hPa16.1 kmNW (320°)24.1 km/hMostly Cloudy
8:51 AM0 °C-6.1 °C64 %1028.4 hPa16.1 kmNW (310°)29.6 km/hMostly Cloudy
9:16 AM1 °C-6 °C60 %1027.8 hPa16.1 kmNW (320°)27.8 km/h40.7 km/hScattered Clouds
9:51 AM1.1 °C-5 °C64 %1029.1 hPa16.1 kmNW (320°)22.2 km/h33.3 km/hScattered Clouds
10:15 AM1 °C-5 °C65 %1028.1 hPa16.1 kmNW (310°)20.4 km/h29.6 km/hMostly Cloudy
10:51 AM1.7 °C-5 °C61 %1029.5 hPa16.1 kmNW (320°)22.2 km/h29.6 km/hMostly Cloudy
11:51 AM2.2 °C-5 °C59 %1029.1 hPa16.1 kmWNW (290°)20.4 km/hMostly Cloudy
12:51 PM2.8 °C-5.6 °C54 %1028.8 hPa16.1 kmWNW (300°)13 km/hMostly Cloudy
1:38 PM3 °C-5 °C56 %1027.4 hPa16.1 kmNNW (330°)20.4 km/hMostly Cloudy
1:51 PM2.8 °C-5 °C57 %1028.4 hPa16.1 kmNW (310°)18.5 km/hMostly Cloudy
2:08 PM3 °C-5 °C56 %1027.4 hPa16.1 kmNW (320°)18.5 km/h27.8 km/hMostly Cloudy
2:51 PM3.9 °C-5 °C53 %1028.8 hPa16.1 kmWest (280°)18.5 km/hMostly Cloudy
3:09 PM4 °C-5 °C52 %1027.4 hPa16.1 kmNNW (330°)20.4 km/h31.5 km/hScattered Clouds
3:51 PM3.9 °C-5.6 °C50 %1028.8 hPa16.1 kmWNW (290°)20.4 km/h29.6 km/hScattered Clouds
4:51 PM2.8 °C-5.6 °C54 %1028.8 hPa14.5 kmNW (320°)13 km/hScattered Clouds
5:51 PM1.7 °C-6.1 °C57 %1028.8 hPa16.1 kmNW (310°)14.8 km/hPartly Cloudy
6:51 PM0.6 °C-6.1 °C61 %1028.8 hPa16.1 kmWNW (300°)11.1 km/hPartly Cloudy
7:51 PM-0.6 °C-6.1 °C67 %1028.4 hPa16.1 kmNNW (330°)9.3 km/hClear
8:51 PM-1.1 °C-6.1 °C69 %1028.8 hPa16.1 kmNW (310°)7.4 km/hClear
9:51 PM-1.1 °C-6.1 °C69 %1029.1 hPa16.1 kmNorth (350°)7.4 km/hClear
10:51 PM-1.7 °C-6.1 °C72 %1028.8 hPa16.1 kmNNE (20°)7.4 km/hClear
11:51 PM-2.2 °C-6.1 °C75 %1028.8 hPa16.1 kmNE (50°)7.4 km/hClear
Hourly data recorded from KSTL, located 0 kilometers away from Chesterfield, Missouri







STORIES FROM OUR PARTNERS